Location: Newark
(49.8969°N, 3.3422°E)
Time: 12:32:31
(UTC+00:00)

Envisat - Pass Details

Date: 09 December 2019
Orbit: 764 x 766 km, 98.1° (Epoch: 18 January)

Event Time Altitude Azimuth Distance (km) Brightness Sun altitude
Rises 16:35:05 0° 135° (SE) 3,225 6.0 -7.7°
Reaches altitude 10° 16:37:34 10° 126° (SE) 2,303 5.2 -8.0°
Maximum altitude 16:42:04 33° 64° (ENE) 1,275 3.6 -8.7°
Drops below altitude 10° 16:46:35 10° 2° (N) 2,317 5.2 -9.3°
Sets 16:49:04 0° 353° (N) 3,247 6.1 -9.7°
